This is the latest recevied weather packets stored in our database for station/object ON5MM-5. If no packets are shown the sender has not sent any weather packets the latest 10 day(s).
| Time | Temp. | Humidity | Pressure | Rain* | Wind** | Luminosity | Snow |
|---|---|---|---|---|---|---|---|
| 1777198803 | 14.44° C | 47% | 1026 hPa | 0 mm | 1.34 m/s, ° | - | - |
| 1777198503 | 14.44° C | 47% | 1026 hPa | 0 mm | 1.34 m/s, ° | - | - |
| 1777198202 | 14.44° C | 48% | 1026 hPa | 0 mm | 1.34 m/s, ° | - | - |
| 1777197903 | 14.44° C | 47% | 1026 hPa | 0 mm | 1.79 m/s, ° | - | - |
| 1777197602 | 13.89° C | 49% | 1026 hPa | 0 mm | 0.89 m/s, ° | - | - |
| 1777197302 | 13.89° C | 50% | 1026 hPa | 0 mm | 0.89 m/s, ° | - | - |
| 1777197002 | 13.89° C | 51% | 1026.1 hPa | 0 mm | 1.34 m/s, ° | - | - |
| 1777196702 | 13.89° C | 50% | 1026.1 hPa | 0 mm | 1.79 m/s, ° | - | - |
| 1777196403 | 13.89° C | 52% | 1026.1 hPa | 0 mm | 0.89 m/s, ° | - | - |
| 1777196103 | 13.33° C | 53% | 1026.1 hPa | 0 mm | 1.34 m/s, ° | - | - |
| 1777195802 | 13.33° C | 55% | 1026.1 hPa | 0 mm | 2.24 m/s, ° | - | - |
| 1777195503 | 13.33° C | 55% | 1026.2 hPa | 0 mm | 1.34 m/s, ° | - | - |
| 1777195203 | 12.78° C | 56% | 1026.1 hPa | 0 mm | 1.79 m/s, ° | - | - |
| 1777194903 | 13.33° C | 56% | 1026.1 hPa | 0 mm | 0.89 m/s, ° | - | - |
| 1777194602 | 12.78° C | 58% | 1026.2 hPa | 0 mm | 0.89 m/s, ° | - | - |
| 1777194303 | 12.22° C | 59% | 1026.2 hPa | 0 mm | 1.34 m/s, ° | - | - |
| 1777194003 | 11.67° C | 58% | 1026.2 hPa | 0 mm | 1.79 m/s, ° | - | - |
| 1777193702 | 12.22° C | 59% | 1026.2 hPa | 0 mm | 0.89 m/s, ° | - | - |
| 1777193403 | 11.67° C | 61% | 1026.2 hPa | 0 mm | 1.34 m/s, ° | - | - |
| 1777193103 | 11.67° C | 61% | 1026.3 hPa | 0 mm | 1.79 m/s, ° | - | - |
| 1777192802 | 11.11° C | 62% | 1026.2 hPa | 0 mm | 1.79 m/s, ° | - | - |
| 1777192502 | 11.67° C | 62% | 1026.2 hPa | 0 mm | 1.79 m/s, ° | - | - |
| 1777192202 | 11.67° C | 62% | 1026.2 hPa | 0 mm | 1.79 m/s, ° | - | - |
| 1777191903 | 11.67° C | 64% | 1026.2 hPa | 0 mm | 1.79 m/s, ° | - | - |
| 1777191602 | 11.67° C | 62% | 1026.2 hPa | 0 mm | 0.89 m/s, ° | - | - |
* Rain latest hour (hover to see other rain measurements)
** Current wind speed in m/s (hover to see current wind gust speed)